When you browse on this site, cookies collect data to enhance your experience and personalize the content and advertising you see.
Visit our Privacy Policy to learn more. By continuing to use the site, you agree to this use of cookies and data.
  • în România
  • Lista ţărilor
  • Pe 7 zile
  • Temperatura apei
  • Hartă satelitară
  • Meteo pe hartă
  • Widget-uri
  • user-avatar
    Intrare

    Meteo pe oră la Kigazytamakovo

    Astăzi, 22 Iulie, Luni

    Timp Temperatura Precipitaţii Vânt Presiune Umiditate
    00:00 +16°C° 0 mm 2 m/s 745 mmHg 93%
    01:00 +16°C° 0 mm 2 m/s 745 mmHg 93%
    02:00 +15°C° 0 mm 2 m/s 745 mmHg 94%
    03:00 +15°C° 0 mm 1 m/s 745 mmHg 94%
    04:00 +14°C° 0 mm 2 m/s 745 mmHg 96%
    05:00 +15°C° 0 mm 2 m/s 745 mmHg 95%
    06:00 +16°C° 0 mm 3 m/s 745 mmHg 94%
    07:00 +17°C° 0 mm 3 m/s 745 mmHg 92%
    08:00 +18°C° 0.2 mm 3 m/s 745 mmHg 89%
    09:00 +19°C° 0.2 mm 3 m/s 745 mmHg 85%
    10:00 +20°C° 0 mm 4 m/s 745 mmHg 82%
    11:00 +21°C° 0.5 mm 4 m/s 744 mmHg 80%
    12:00 +21°C° 0.5 mm 4 m/s 744 mmHg 78%
    13:00 +22°C° 0.5 mm 4 m/s 744 mmHg 76%
    14:00 +22°C° 0.3 mm 4 m/s 744 mmHg 75%
    15:00 +22°C° 0.3 mm 4 m/s 744 mmHg 75%
    16:00 +22°C° 0.3 mm 4 m/s 744 mmHg 74%
    17:00 +21°C° 0.1 mm 3 m/s 744 mmHg 77%
    18:00 +21°C° 0.1 mm 3 m/s 743 mmHg 81%
    19:00 +20°C° 0.1 mm 2 m/s 743 mmHg 84%
    20:00 +19°C° 0.1 mm 2 m/s 743 mmHg 87%
    21:00 +18°C° 0.1 mm 2 m/s 743 mmHg 89%
    22:00 +16°C° 0.1 mm 2 m/s 743 mmHg 92%
    23:00 +16°C° 0 mm 2 m/s 743 mmHg 93%

    Mâine, 23 Iulie, Marţi

    Timp Temperatura Precipitaţii Vânt Presiune Umiditate
    00:00 +15°C° 0 mm 2 m/s 743 mmHg 94%
    01:00 +15°C° 0 mm 2 m/s 742 mmHg 95%
    02:00 +14°C° 0 mm 2 m/s 742 mmHg 96%
    03:00 +14°C° 0 mm 2 m/s 743 mmHg 96%
    04:00 +13°C° 0 mm 2 m/s 743 mmHg 97%
    05:00 +14°C° 0 mm 2 m/s 743 mmHg 96%
    06:00 +15°C° 0 mm 2 m/s 743 mmHg 95%
    07:00 +16°C° 0 mm 2 m/s 743 mmHg 95%
    08:00 +17°C° 0.1 mm 3 m/s 743 mmHg 91%
    09:00 +18°C° 0.1 mm 3 m/s 743 mmHg 88%
    10:00 +19°C° 0.1 mm 3 m/s 743 mmHg 85%
    11:00 +20°C° 0.5 mm 4 m/s 743 mmHg 82%
    12:00 +21°C° 0.5 mm 4 m/s 743 mmHg 80%
    13:00 +21°C° 0.5 mm 4 m/s 744 mmHg 77%
    14:00 +22°C° 0.6 mm 4 m/s 744 mmHg 77%
    15:00 +22°C° 0.6 mm 4 m/s 744 mmHg 78%
    16:00 +22°C° 0.6 mm 4 m/s 744 mmHg 78%
    17:00 +21°C° 0.3 mm 4 m/s 744 mmHg 82%
    18:00 +20°C° 0.3 mm 3 m/s 744 mmHg 85%
    19:00 +20°C° 0.3 mm 3 m/s 744 mmHg 89%
    20:00 +19°C° 0.2 mm 3 m/s 744 mmHg 91%
    21:00 +18°C° 0.2 mm 3 m/s 744 mmHg 93%
    22:00 +16°C° 0.2 mm 3 m/s 745 mmHg 95%
    23:00 +16°C° 0 mm 3 m/s 745 mmHg 95%

    Poimâine, 24 Iulie, Miercuri

    Timp Temperatura Precipitaţii Vânt Presiune Umiditate
    00:00 +15°C° 0 mm 2 m/s 745 mmHg 96%
    01:00 +15°C° 0 mm 2 m/s 745 mmHg 96%
    02:00 +15°C° 0 mm 2 m/s 745 mmHg 96%
    03:00 +14°C° 0 mm 2 m/s 745 mmHg 96%
    04:00 +14°C° 0 mm 2 m/s 746 mmHg 96%
    05:00 +15°C° 0 mm 2 m/s 746 mmHg 95%
    06:00 +16°C° 0 mm 2 m/s 746 mmHg 94%
    07:00 +17°C° 0 mm 2 m/s 746 mmHg 92%
    08:00 +18°C° 0 mm 2 m/s 746 mmHg 88%
    09:00 +19°C° 0 mm 3 m/s 746 mmHg 84%
    10:00 +20°C° 0 mm 3 m/s 747 mmHg 80%
    11:00 +22°C° 0.2 mm 3 m/s 747 mmHg 78%
    12:00 +23°C° 0.2 mm 4 m/s 747 mmHg 75%
    13:00 +25°C° 0.2 mm 4 m/s 747 mmHg 73%
    14:00 +23°C° 0.5 mm 4 m/s 747 mmHg 75%
    15:00 +23°C° 0.5 mm 4 m/s 747 mmHg 77%
    16:00 +24°C° 0.5 mm 3 m/s 747 mmHg 79%
    17:00 +24°C° 0.2 mm 3 m/s 747 mmHg 80%
    18:00 +22°C° 0.2 mm 3 m/s 747 mmHg 82%
    19:00 +23°C° 0.2 mm 2 m/s 747 mmHg 84%
    20:00 +21°C° 0 mm 2 m/s 747 mmHg 85%
    21:00 +19°C° 0 mm 2 m/s 748 mmHg 86%
    22:00 +18°C° 0 mm 2 m/s 748 mmHg 88%
    23:00 +18°C° 0 mm 2 m/s 748 mmHg 88%

    25 Iulie, Joi

    Timp Temperatura Precipitaţii Vânt Presiune Umiditate
    00:00 +17°C° 0 mm 2 m/s 748 mmHg 88%
    01:00 +17°C° 0 mm 2 m/s 749 mmHg 89%
    02:00 +18°C° 0 mm 1 m/s 749 mmHg 88%
    03:00 +16°C° 0 mm 1 m/s 748 mmHg 88%
    04:00 +16°C° 0 mm 1 m/s 748 mmHg 87%
    05:00 +18°C° 0 mm 1 m/s 749 mmHg 85%
    06:00 +20°C° 0 mm 1 m/s 749 mmHg 83%
    07:00 +21°C° 0 mm 1 m/s 749 mmHg 81%
    08:00 +22°C° 0 mm 1 m/s 749 mmHg 75%
    09:00 +24°C° 0 mm 1 m/s 749 mmHg 70%
    10:00 +26°C° 0 mm 1 m/s 749 mmHg 65%
    11:00 +26°C° 0 mm 1 m/s 749 mmHg 61%
    12:00 +27°C° 0 mm 1 m/s 749 mmHg 57%
    13:00 +28°C° 0 mm 1 m/s 749 mmHg 54%
    14:00 +27°C° 0 mm 2 m/s 749 mmHg 56%
    15:00 +27°C° 0 mm 2 m/s 749 mmHg 58%
    16:00 +27°C° 0 mm 2 m/s 749 mmHg 59%
    17:00 +26°C° 0 mm 2 m/s 749 mmHg 64%
    18:00 +25°C° 0 mm 2 m/s 749 mmHg 69%
    19:00 +24°C° 0 mm 2 m/s 749 mmHg 74%
    20:00 +23°C° 0 mm 2 m/s 749 mmHg 75%
    21:00 +20°C° 0 mm 2 m/s 749 mmHg 75%
    22:00 +19°C° 0 mm 2 m/s 749 mmHg 75%
    23:00 +19°C° 0 mm 2 m/s 749 mmHg 77%

    26 Iulie, Vineri

    Timp Temperatura Precipitaţii Vânt Presiune Umiditate
    00:00 +18°C° 0 mm 2 m/s 749 mmHg 79%
    01:00 +19°C° 0 mm 1 m/s 749 mmHg 81%
    02:00 +19°C° 0 mm 1 m/s 749 mmHg 80%
    03:00 +18°C° 0 mm 1 m/s 749 mmHg 78%
    04:00 +18°C° 0 mm 1 m/s 749 mmHg 77%
    05:00 +19°C° 0 mm 1 m/s 749 mmHg 75%
    06:00 +20°C° 0 mm 1 m/s 749 mmHg 74%
    07:00 +21°C° 0 mm 1 m/s 749 mmHg 72%
    08:00 +23°C° 0 mm 1 m/s 749 mmHg 68%
    09:00 +24°C° 0 mm 1 m/s 749 mmHg 63%
    10:00 +25°C° 0 mm 1 m/s 749 mmHg 59%
    11:00 +26°C° 0 mm 1 m/s 749 mmHg 57%
    12:00 +27°C° 0 mm 1 m/s 748 mmHg 55%
    13:00 +28°C° 0 mm 1 m/s 748 mmHg 52%
    14:00 +28°C° 0 mm 1 m/s 748 mmHg 53%
    15:00 +28°C° 0 mm 2 m/s 748 mmHg 54%
    16:00 +28°C° 0 mm 2 m/s 747 mmHg 55%
    17:00 +27°C° 0 mm 2 m/s 747 mmHg 61%
    18:00 +26°C° 0 mm 2 m/s 747 mmHg 68%
    19:00 +24°C° 0 mm 2 m/s 747 mmHg 74%
    20:00 +23°C° 0 mm 2 m/s 747 mmHg 76%
    21:00 +20°C° 0 mm 2 m/s 747 mmHg 78%
    22:00 +20°C° 0 mm 1 m/s 746 mmHg 80%
    23:00 +19°C° 0 mm 1 m/s 746 mmHg 81%

    27 Iulie, Sâmbătă

    Timp Temperatura Precipitaţii Vânt Presiune Umiditate
    00:00 +19°C° 0 mm 1 m/s 746 mmHg 82%
    01:00 +18°C° 0 mm 1 m/s 746 mmHg 83%
    02:00 +18°C° 0 mm 1 m/s 746 mmHg 84%
    03:00 +18°C° 0 mm 1 m/s 746 mmHg 85%
    04:00 +15°C° 0 mm 0 m/s 746 mmHg 85%
    05:00 +17°C° 0 mm 0 m/s 745 mmHg 83%
    06:00 +18°C° 0 mm 0 m/s 745 mmHg 81%
    07:00 +19°C° 0 mm 0 m/s 745 mmHg 79%
    08:00 +21°C° 0 mm 0 m/s 745 mmHg 75%
    09:00 +24°C° 0 mm 1 m/s 745 mmHg 71%
    10:00 +25°C° 0 mm 1 m/s 744 mmHg 67%
    11:00 +26°C° 0.1 mm 1 m/s 744 mmHg 64%
    12:00 +26°C° 0.1 mm 2 m/s 744 mmHg 61%
    13:00 +27°C° 0.1 mm 2 m/s 743 mmHg 58%
    14:00 +27°C° 0.1 mm 2 m/s 743 mmHg 59%
    15:00 +27°C° 0.1 mm 3 m/s 742 mmHg 60%
    16:00 +27°C° 0.1 mm 3 m/s 742 mmHg 61%
    17:00 +26°C° 0.1 mm 2 m/s 742 mmHg 66%
    18:00 +25°C° 0.1 mm 2 m/s 741 mmHg 72%
    19:00 +24°C° 0.1 mm 2 m/s 741 mmHg 77%
    20:00 +23°C° 0 mm 2 m/s 740 mmHg 79%
    21:00 +21°C° 0 mm 1 m/s 740 mmHg 81%
    22:00 +20°C° 0 mm 1 m/s 740 mmHg 83%
    23:00 +19°C° 0 mm 2 m/s 739 mmHg 84%
    Arată mai mult